Regional Weather Roundup
Issued by NWS Goodland, KS

Home | Current Version | Previous Version | Graphics & Text | Print | Product List | Glossary On
Versions: 1 2 3 4 5 6 7 8 9 10 11 12 13 14 15 16 17 18 19 20 21 22 23 24 25 26 27 28 29 30 31 32 33 34 35 36 37 38 39 40 41 42 43 44 45 46 47 48 49 50
000
ASUS43 KGLD 071059
RWRGLD

GOODLAND FORECAST AREA HOURLY WEATHER ROUNDUP
NATIONAL WEATHER SERVICE GOODLAND KS
500 AM MDT TUE JUL 07 2015

...OFFICIAL OBSERVATIONS...

CITY           SKY/WX    TMP DP  RH WIND       PRES   REMARKS
GOODLAND KS    CLEAR     53  50  89 NE3       30.20S
HILL CITY KS   CLEAR     57  53  86 N9        30.15R FOG
IMPERIAL NEB   CLEAR     55  51  86 SE3       30.20S
MCCOOK NEB     CLEAR     54  52  93 CALM      30.18S FOG
AKRON CO       CLOUDY    58  51  78 S8        30.24S
BURLINGTON CO  CLEAR     54  50  86 E3        30.22S FOG
LIMON CO       MOCLDY    50  49  96 CALM      30.27S FOG
$$

...UNOFFICIAL OBSERVATIONS...

CITY           SKY/WX    TMP DP  RH WIND       PRES   REMARKS
COLBY KS       CLEAR     55  52  88 N7        30.20S
GOVE KS          N/A     58  32  37 MISG        N/A
NORTON KS      CLEAR     54  48  82 N7        30.16R
SHARON SPRINGS   N/A     57  51  80 CALM        N/A
KIT CARSON CO    N/A     55  49  81 MISG        N/A
$$


USA.gov is the U.S. government's official web portal to all federal, state and local government web resources and services.